Ketchikan, AK

3:49 AM AKST on January 21, 2019 (GMT -0900)
Ketchikan International

Weather History for PAKT - January, 2019

Change the Weather History Date:

Saturday, January 12, 2019

  Actual Average Record
Temperature  
Mean Temperature 38 °F -  
Max Temperature 45 °F 36 °F 50 °F (1956)
Min Temperature 32 °F 24 °F 0 °F (2005)
Degree Days  
Heating Degree Days 26    
Moisture  
Dew Point 36 °F    
Average Humidity 98    
Maximum Humidity 100    
Minimum Humidity 93    
Precipitation  
Precipitation 0.39 in - - ()
Sea Level Pressure  
Sea Level Pressure 29.87 in    
Wind  
Wind Speed 2 mph (SE)    
Max Wind Speed 9 mph    
Max Gust Speed -    
Visibility 4 miles    
Events Fog , Rain    
Averages and records for this station are not official NWS values.
T = Trace of Precipitation, MM = Missing Value Source: NWS Daily Summary

Daily Weather History Graph

Daily Weather History Graph

Search for Another Location

Airport or City:

Astronomy

Jan. 12, 2019 Rise Set
Actual Time 8:07 AM AKST 3:43 PM AKST
Civil Twilight 7:23 AM AKST 4:27 PM AKST
Nautical Twilight 6:36 AM AKST 5:14 PM AKST
Astronomical Twilight 5:52 AM AKST 5:58 PM AKST
Moon 11:01 AM AKST (1/12) 11:08 PM AKST (1/12)
Length of Visible Light 9h 04m
Length of Day
7h 35m
Waxing Crescent, 36% of the Moon is Illuminated
Jan 12
Waxing Crescent
Jan 13
First Quarter
Jan 20
Full
Jan 27
Last Quarter
Feb 4
New

Hourly Weather History & Observations

Time (AKST) Temp. Windchill Dew Point Humidity Pressure Visibility Wind Dir Wind Speed Gust Speed Precip Events Conditions
12:17 AM 34.0 °F 31.0 °F 34.0 °F 100% 29.83 in 0.2 mi SSE 3.5 mph - N/A Fog Fog
12:53 AM 34.0 °F - 34.0 °F 100% 29.84 in 0.2 mi Calm Calm - N/A Fog Fog
1:06 AM 34.0 °F - 34.0 °F 100% 29.84 in 0.5 mi Calm Calm - N/A Fog Fog
1:14 AM 34.0 °F - 33.1 °F 96% 29.84 in 0.2 mi Calm Calm - N/A Fog Fog
1:53 AM 34.0 °F - 34.0 °F 100% 29.86 in 0.2 mi Calm Calm - N/A Fog Fog
2:03 AM 34.0 °F - 33.1 °F 96% 29.85 in 0.5 mi Calm Calm - N/A Fog Fog
2:27 AM 33.1 °F - 33.1 °F 100% 29.85 in 1.8 mi Calm Calm - N/A   Overcast
2:30 AM 33.1 °F - 33.1 °F 100% 29.85 in 3.0 mi Calm Calm - N/A   Overcast
2:40 AM 33.1 °F - 33.1 °F 100% 29.85 in 1.8 mi Calm Calm - N/A   Overcast
2:49 AM 33.8 °F - 33.8 °F 100% 29.86 in 0.5 mi Calm Calm - N/A Fog Fog
2:53 AM 34.0 °F 31.0 °F 33.1 °F 96% 29.86 in 0.8 mi SE 3.5 mph - N/A   Overcast
3:09 AM 34.0 °F 31.0 °F 34.0 °F 100% 29.86 in 2.0 mi SE 3.5 mph - N/A   Overcast
3:22 AM 34.0 °F 31.0 °F 34.0 °F 100% 29.86 in 1.0 mi SE 3.5 mph - N/A   Overcast
3:33 AM 34.0 °F 31.0 °F 34.0 °F 100% 29.86 in 3.0 mi SE 3.5 mph - N/A   Overcast
3:53 AM 34.0 °F - 34.0 °F 100% 29.87 in 10.0 mi Calm Calm - N/A   Overcast
3:57 AM 34.0 °F - 34.0 °F 100% 29.86 in 10.0 mi Calm Calm - N/A   Overcast
4:22 AM 35.1 °F 32.2 °F 34.0 °F 96% 29.87 in 10.0 mi SE 3.5 mph - N/A   Overcast
4:53 AM 34.0 °F - 34.0 °F 100% 29.87 in 5.0 mi Calm Calm - N/A   Overcast
5:15 AM 34.0 °F - 33.1 °F 96% 29.87 in 10.0 mi Calm Calm - N/A   Overcast
5:40 AM 35.1 °F - 35.1 °F 100% 29.86 in 1.8 mi Calm Calm - N/A   Overcast
5:45 AM 34.0 °F - 34.0 °F 100% 29.86 in 0.8 mi Calm Calm - N/A   Overcast
5:47 AM 33.8 °F - 33.8 °F 100% 29.86 in 0.8 mi Calm Calm - N/A   Overcast
5:53 AM 33.1 °F 30.0 °F 32.0 °F 96% 29.86 in 0.5 mi WNW 3.5 mph - N/A Fog Fog
6:11 AM 34.0 °F 31.0 °F 34.0 °F 100% 29.86 in 0.2 mi WNW 3.5 mph - N/A Fog Fog
6:21 AM 34.0 °F - 34.0 °F 100% 29.86 in 0.2 mi Calm Calm - N/A Fog Fog
6:53 AM 33.1 °F - 33.1 °F 100% 29.87 in 0.2 mi Calm Calm - N/A Fog Fog
7:30 AM 32.0 °F - 32.0 °F 100% 29.87 in 0.2 mi Calm Calm - N/A Fog Fog
7:42 AM 32.0 °F - 32.0 °F 100% 29.87 in 0.2 mi Calm Calm - N/A Fog Fog
7:53 AM 32.0 °F - 32.0 °F 100% 29.88 in 0.2 mi Calm Calm - N/A Fog Fog
8:53 AM 32.0 °F - 32.0 °F 100% 29.89 in 0.2 mi Calm Calm - N/A Fog Fog
9:45 AM 33.1 °F - 33.1 °F 100% 29.89 in 0.5 mi Calm Calm - N/A Fog Fog
9:53 AM 33.1 °F - 33.1 °F 100% 29.89 in 0.5 mi Calm Calm - N/A Fog Fog
10:03 AM 33.1 °F 30.0 °F 32.0 °F 96% 29.89 in 3.0 mi SE 3.5 mph - N/A   Overcast
10:53 AM 35.1 °F 28.6 °F 34.0 °F 96% 29.89 in 10.0 mi ESE 8.1 mph - 0.01 in Rain Light Rain
11:53 AM 35.6 °F 29.9 °F 35.6 °F 100% 29.88 in 7.0 mi ESE 6.9 mph - N/A Rain Light Rain
12:53 PM 37.9 °F 35.5 °F 37.0 °F 97% 29.86 in 7.0 mi SE 3.5 mph - 0.03 in Rain Light Rain
1:53 PM 39.0 °F 34.8 °F 37.9 °F 96% 29.85 in 10.0 mi ESE 5.8 mph - 0.03 in Rain Light Rain
2:53 PM 39.9 °F 36.7 °F 39.0 °F 97% 29.85 in 6.0 mi ESE 4.6 mph - 0.06 in Rain Light Rain
3:53 PM 43.0 °F 39.5 °F 41.0 °F 93% 29.85 in 4.0 mi SE 5.8 mph - 0.10 in Rain Rain
4:53 PM 43.0 °F 38.8 °F 41.0 °F 93% 29.86 in 5.0 mi ESE 6.9 mph - 0.05 in Rain Light Rain
5:53 PM 44.6 °F 40.7 °F 42.8 °F 93% 29.87 in 5.0 mi SSE 6.9 mph - N/A Rain Light Rain
6:53 PM 42.8 °F 38.0 °F 41.0 °F 93% 29.88 in 7.0 mi East 8.1 mph - N/A Rain Light Rain
7:53 PM 44.6 °F 39.7 °F 42.8 °F 93% 29.90 in 3.0 mi South 9.2 mph - N/A Rain Light Rain
8:53 PM 44.6 °F 40.7 °F 42.8 °F 93% 29.92 in 3.0 mi SE 6.9 mph - N/A Rain Light Rain
9:36 PM 45.0 °F 41.2 °F 43.0 °F 93% 29.91 in 10.0 mi ESE 6.9 mph - 0.02 in   Overcast
9:53 PM 44.1 °F 40.1 °F 42.1 °F 93% 29.92 in 10.0 mi ESE 6.9 mph - 0.02 in   Overcast
10:53 PM 43.0 °F 39.5 °F 41.0 °F 93% 29.95 in 10.0 mi SE 5.8 mph - N/A   Overcast
11:13 PM 43.0 °F 38.2 °F 42.1 °F 97% 29.95 in 2.5 mi SE 8.1 mph - 0.01 in Rain Rain
11:30 PM 43.0 °F 38.2 °F 42.1 °F 97% 29.95 in 3.0 mi East 8.1 mph - 0.06 in Rain Light Rain
11:53 PM 43.0 °F 40.3 °F 42.1 °F 97% 29.95 in 4.0 mi SE 4.6 mph - 0.09 in Rain Light Rain